Location: ???? ????
(31.2831°N, 45.5190°E)
Time: 04:55:26
(UTC+00:00)

Cosmos 2181 Rocket - Pass Details

Date: 24 February 2021
Orbit: 951 x 1015 km, 82.9° (Epoch: 14 April)

Event Time Altitude Azimuth Distance (km) Brightness Sun altitude
Rises 15:11:52 0° 3° (N) 3,756 6.9 -4.9°
Reaches altitude 10° 15:14:36 10° 11° (N) 2,800 6.2 -5.5°
Maximum altitude 15:20:37 40° 80° (E) 1,438 4.5 -6.8°
Drops below altitude 10° 15:26:32 10° 148° (SSE) 2,763 6.1 -8.1°
Sets 15:29:12 0° 156° (SSE) 3,701 6.8 -8.6°
